Weather History for Concord, NH

Change the Weather History Date:

Sunday, May 18, 2014

  Actual Average Record
Temperature  
Mean Temperature 55 °F 56 °F  
Max Temperature 71 °F 70 °F 90 °F (1906)
Min Temperature 39 °F 43 °F 25 °F (1983)
Degree Days  
Heating Degree Days 10 9  
Month to date heating degree days 160 208  
Since 1 July heating degree days 7462 7055  
Cooling Degree Days 0 1  
Month to date cooling degree days 2 1  
Year to date cooling degree days 2 3  
Growing Degree Days 5 (Base 50)    
Moisture  
Dew Point 35 °F    
Average Humidity 58    
Maximum Humidity 93    
Minimum Humidity 22    
Precipitation  
Precipitation 0.00 in 0.12 in 1.06 in (1945)
Month to date precipitation 1.77 2.03  
Year to date precipitation 15.94 14.03  
Snow  
Snow 0.00 in 0.00 in T in (2002)
Month to date snowfall 0.0 0.2  
Since 1 July snowfall 80.4 61.6  
Snow Depth 0.00 in    
Sea Level Pressure  
Sea Level Pressure 30.08 in    
Wind  
Wind Speed 8 mph (NW)    
Max Wind Speed 17 mph    
Max Gust Speed 24 mph    
Visibility 10 miles    
Events      
T = Trace of Precipitation, MM = Missing Value Source: NWS Daily Summary

Daily Weather History Graph

Daily Weather History Graph

Search for Another Location

Airport:

Trip Planner

Search our weather history database for the weather conditions in past years. The results will help you decide how hot, cold, wet, or windy it might be!

Date:

Astronomy

May. 18, 2014 Rise Set
Actual Time 5:19 AM EDT 8:06 PM EDT
Civil Twilight 4:46 AM EDT 8:39 PM EDT
Nautical Twilight 4:04 AM EDT 9:21 PM EDT
Astronomical Twilight 3:16 AM EDT 10:10 PM EDT
Moon 11:50 PM EDT (5/18) 9:05 AM EDT (5/18)
Length of Visible Light 15h 53m
Length of Day
14h 47m
Waning Gibbous, 81% of the Moon is Illuminated
May 18
Waning Gibbous
May 21
Last Quarter
May 28
New
Jun 5
First Quarter
Jun 13
Full

Hourly Weather History & Observations

Time (EDT) Temp. Dew Point Humidity Pressure Visibility Wind Dir Wind Speed Gust Speed Precip Events Conditions
12:51 AM 45.0 °F 39.9 °F 82% 30.08 in 10.0 mi Calm Calm - N/A   Clear
1:51 AM 44.1 °F 39.9 °F 85% 30.07 in - Calm Calm - N/A   Clear
2:51 AM 42.1 °F 39.9 °F 92% 30.08 in 10.0 mi Calm Calm - N/A   Clear
3:51 AM 41.0 °F 39.0 °F 93% 30.09 in 10.0 mi Calm Calm - N/A   Clear
4:51 AM 41.0 °F 39.2 °F 93% 30.10 in 10.0 mi Calm Calm - N/A   Clear
5:51 AM 39.0 °F 37.9 °F 96% 30.12 in 9.0 mi Calm Calm - N/A   Clear
6:51 AM 46.9 °F 44.1 °F 90% 30.12 in 10.0 mi Calm Calm - N/A   Clear
7:51 AM 51.1 °F 41.0 °F 68% 30.13 in 10.0 mi NW 8.1 mph - N/A   Clear
8:51 AM 55.0 °F 37.9 °F 53% 30.12 in 10.0 mi NNW 11.5 mph - N/A   Mostly Cloudy
9:51 AM 57.9 °F 37.9 °F 47% 30.12 in 10.0 mi NW 8.1 mph - N/A   Overcast
10:51 AM 62.6 °F 37.4 °F 39% 30.10 in 10.0 mi NW 10.4 mph - N/A   Clear
11:51 AM 66.0 °F 37.0 °F 34% 30.09 in 10.0 mi NW 9.2 mph 18.4 mph N/A   Clear
12:51 PM 66.0 °F 34.0 °F 30% 30.07 in 10.0 mi WNW 9.2 mph 19.6 mph N/A   Partly Cloudy
1:51 PM 68.0 °F 33.1 °F 27% 30.06 in 10.0 mi NW 12.7 mph - N/A   Clear
2:51 PM 66.0 °F 30.9 °F 27% 30.04 in 10.0 mi NNW 11.5 mph - N/A   Partly Cloudy
3:51 PM 70.0 °F 30.9 °F 24% 30.02 in 10.0 mi WNW 15.0 mph 21.9 mph N/A   Clear
4:51 PM 69.1 °F 28.9 °F 22% 30.01 in 10.0 mi NW 12.7 mph 23.0 mph N/A   Scattered Clouds
5:51 PM 68.0 °F 28.9 °F 23% 30.02 in 10.0 mi WNW 13.8 mph - N/A   Scattered Clouds
6:51 PM 66.9 °F 28.9 °F 24% 30.03 in 10.0 mi NNW 12.7 mph - N/A   Overcast
7:51 PM 63.0 °F 28.0 °F 27% 30.04 in 10.0 mi NW 10.4 mph 20.7 mph N/A   Overcast
8:51 PM 59.0 °F 28.0 °F 31% 30.06 in 10.0 mi NW 9.2 mph - N/A   Overcast
9:51 PM 55.9 °F 30.0 °F 37% 30.08 in 10.0 mi NNW 9.2 mph - N/A   Clear
10:51 PM 53.6 °F 30.2 °F 41% 30.08 in 10.0 mi NW 6.9 mph - N/A   Clear
11:51 PM 52.0 °F 30.9 °F 45% 30.08 in 10.0 mi NW 8.1 mph - N/A   Clear